QZS-3 (QZSS/PRN 199)

Last updated on Sat Sep 05 2026 00:03:32 GMT+0000 (Coordinated Universal Time)

1 42917U 17048A 26247.62106676 -.00000356 00000+0 00000+0 0 9991 2 42917 0.0521 182.2255 0002108 348.0854 163.9806 1.00266464 33054
UTC large
Height (km)
Speed (km/s)
/
Latitude / Longitude
Inclination (degrees)
Orbital Period (minutes)
Azimuth
Elevation
Range (km)
Doppler Factor

Next 0 passes for location: London (51.5072 / 0.1276)

No passes found over London.
QZS-3 (QZSS/PRN 199)